Voltar ao catálogo

STARLINK-32762

AtivoComunicaçõesVLEO
NORAD 62748·PAYLOAD·🇺🇸 United States

Lançado Jan 21, 2025 de Cape Canaveral Space Force Station

Loading…

Próximas Passagens (próximas 24 horas)

TLE

AtualizadoSource: CelesTrak SupGP

Época: Sep 15, 2026, 02:52 UTC

1 62748C 25014P   26258.11993056 -.00006756  00000+0 -24476-3 0  2585
2 62748  43.0030 167.8519 0001355 275.7202 333.8295 15.27572634    11

Acompanhe STARLINK-32762 em tempo real com AllMySat

Download on the App Store